Miscellaneous Local Product
Issued by NWS North Platte, NE

Home | Current Version | Previous Version | Graphics & Text | Print | Product List | Glossary On
Versions: 1 2 3 4 5 6 7 8 9 10 11 12 13 14 15 16 17 18 19 20 21 22 23 24 25 26 27 28 29 30 31 32 33 34 35 36 37 38 39 40 41 42 43 44 45 46 47 48 49 50
564
AXUS43 KLBF 250910
MISLBF


WESTERN AND NORTH CENTRAL NEBRASKA HOURLY WEATHER ROUNDUP
NATIONAL WEATHER SERVICE NORTH PLATTE NE
400 AM CDT THU AUG 25 2016

NOTE: "FAIR" INDICATES FEW OR NO CLOUDS BELOW 12,000 FEET WITH NO
SIGNIFICANT WEATHER AND/OR OBSTRUCTIONS TO VISIBILITY.

NOTE: STATIONS NOT REPORTING VARIABLES SUCH AS SKY/WEATHER OR
PRESSURE ARE PROVIDED BY RAWS AND APRS NETWORKS AND ARE NOT UNDER
NATIONAL WEATHER SERVICE QUALITY CONTROL.

...OBSERVATIONS IN AND NEAR THE EASTERN PANHANDLE OF NEBRASKA...

CITY           SKY/WX    TMP DP  RH WIND       PRES   REMARKS
PINE RIDGE     CLOUDY    53  47  79 NE3       30.24R
CHADRON        CLOUDY    55  47  74 NE8       30.23S
ALLIANCE       CLEAR     49  47  93 N6        30.22R
SIDNEY         CLEAR     45  39  79 W6        30.23S
CRESCENT LAKE    N/A     52  45  78 CALM        N/A
$$

...OBSERVATIONS IN NORTHERN NEBRASKA AND FAR SOUTHERN SOUTH DAKOTA...

CITY           SKY/WX    TMP DP  RH WIND       PRES   REMARKS
WINNER         FAIR      54  50  86 NW8       30.18R
VALENTINE      CLOUDY    60  45  57 N13G21    30.19R
THEDFORD       CLOUDY    53  51  92 W3        30.19S
AINSWORTH      CLOUDY    60  55  84 NW6       30.18R
O`NEILL        PTCLDY    60  52  74 NW8       30.13F
ORD            CLOUDY    57  54  89 CALM      30.12F
BROKEN BOW     CLOUDY    54  53  97 CALM      30.15F
VALENTINE NWR    N/A     58  52  80 W5          N/A
BUTTE            N/A     59  51  76 W6          N/A
HALSEY           N/A     56  48  73 CALM        N/A
EWING            N/A     54  53  95 CALM        N/A
$$

...OBSERVATIONS IN SOUTHWEST NEBRASKA AND FAR NORTHEAST COLORADO...

CITY           SKY/WX    TMP DP  RH WIND       PRES   REMARKS
WRAY           FAIR      52  41  66 CALM      30.20S
HOLYOKE        FAIR      52  46  82 CALM      30.20S
IMPERIAL       MOCLDY    56  47  71 CALM      30.18F
OGALLALA       MOCLDY    47  43  83 CALM      30.19R
NORTH PLATTE   MOCLDY    53  49  86 CALM      30.17S
MCCOOK         CLOUDY    57  52  83 SW5       30.16S
LEXINGTON      CLOUDY    57  54  89 NW3       30.15S
STAPLETON        N/A     53  49  87 CALM        N/A
GOTHENBURG       N/A     58  49  72 CALM        N/A
CALLAWAY         N/A     52  51  95 N6          N/A
$$

...OBSERVATIONS IN CENTRAL LINCOLN COUNTY AREA...

CITY           SKY/WX    TMP DP  RH WIND       PRES   REMARKS
N.P. AIRPORT   MOCLDY    53  49  86 CALM      30.17S
N.P. DOWNTOWN    N/A     56  51  85 CALM        N/A
N.P. HILLCREST   N/A     54  49  83 N3          N/A
$$

...SOME OBSERVATIONS FROM AROUND THE REGION...

CITY           SKY/WX    TMP DP  RH WIND       PRES   REMARKS
DENVER         PTCLDY    49  39  68 S14       30.22F
LARAMIE        CLOUDY    46  43  89 SE12      30.28R
CHEYENNE       CLOUDY    46  43  89 N3        30.27R
SCOTTSBLUFF    CLEAR     50  47  89 CALM      30.22S
RAPID CITY     CLOUDY    55  42  61 NW16      30.23S
BISMARCK       CLOUDY    57  47  69 NW14G24   30.09R
PIERRE         CLEAR     54  46  74 NW8       30.15R
SIOUX FALLS    CLOUDY    62  56  80 W6        30.09R
OMAHA          PTCLDY    62  58  86 N6        30.09R
GRAND ISLAND   PTCLDY    59  55  87 NW3       30.13R
KANSAS CITY    LGT RAIN  70  68  93 S3        30.05R FOG
WICHITA        CLOUDY    75  68  78 NW14G20   30.04R THUNDER
OKLAHOMA CITY  PTCLDY    72  69  90 S7        30.04F
DALLAS         CLEAR     79  72  79 SW8       30.04R
AMARILLO       PTCLDY    61  58  90 NE6       30.13F
DODGE CITY     CLOUDY    61  61 100 N10       30.09R
HAYS           CLOUDY    61  52  72 NW8       30.13R
GOODLAND       CLOUDY    54  49  83 N3        30.18F
$$




USA.gov is the U.S. government's official web portal to all federal, state and local government web resources and services.